This is the latest recevied weather packets stored in our database for station/object KC0FGX-1. If no packets are shown the sender has not sent any weather packets the latest 10 day(s).
| Time | Temp. | Humidity | Pressure | Rain* | Wind** | Luminosity | Snow |
|---|---|---|---|---|---|---|---|
| 1777547810 | 3.33° C | 95% | 1016.4 hPa | 0 mm | - | - | - |
| 1777546822 | 2.22° C | 95% | 1016.4 hPa | 0 mm | - | - | - |
| 1777544822 | 1.67° C | 95% | 1016.4 hPa | 0 mm | - | - | - |
| 1777544211 | 1.67° C | 95% | 1016.5 hPa | 0 mm | - | - | - |
| 1777543824 | 1.67° C | 95% | 1016.5 hPa | 0 mm | - | - | - |
| 1777542411 | 1.11° C | 94% | 1016.3 hPa | 0 mm | - | - | - |
| 1777541822 | 1.67° C | 94% | 1016.4 hPa | 0 mm | - | - | - |
| 1777540824 | 1.67° C | 94% | 1016.2 hPa | 0 mm | - | - | - |
| 1777540610 | 1.67° C | 94% | 1016.3 hPa | 0 mm | - | - | - |
| 1777538822 | 2.22° C | 95% | 1016.3 hPa | 0 mm | - | - | - |
| 1777537822 | 1.67° C | 94% | 1016.3 hPa | 0 mm | - | - | - |
| 1777537011 | 1.67° C | 94% | 1016.3 hPa | 0 mm | - | - | - |
| 1777534821 | 2.22° C | 93% | 1016.7 hPa | 0 mm | - | - | - |
| 1777533821 | 2.22° C | 93% | 1016.8 hPa | 0 mm | - | - | - |
| 1777533410 | 2.22° C | 93% | 1017 hPa | 0 mm | - | - | - |
| 1777532822 | 2.22° C | 93% | 1017 hPa | 0 mm | - | - | - |
| 1777531822 | 2.78° C | 93% | 1016.9 hPa | 0 mm | - | - | - |
| 1777531610 | 2.78° C | 93% | 1016.9 hPa | 0 mm | - | - | - |
| 1777530821 | 3.33° C | 93% | 1017.1 hPa | 0 mm | - | - | - |
| 1777529822 | 3.33° C | 93% | 1017.3 hPa | 0 mm | - | - | - |
| 1777529810 | 3.33° C | 93% | 1017.2 hPa | 0 mm | - | - | - |
| 1777528821 | 3.33° C | 93% | 1017.4 hPa | 0 mm | - | - | - |
| 1777528011 | 3.33° C | 92% | 1017.6 hPa | 0 mm | - | - | - |
| 1777526822 | 3.89° C | 92% | 1017.6 hPa | 0 mm | - | - | - |
| 1777526210 | 3.33° C | 91% | 1017.7 hPa | 0 mm | - | - | - |
* Rain latest hour (hover to see other rain measurements)
** Current wind speed in m/s (hover to see current wind gust speed)